DECAYED

STARLINK-3296, 50168 (Decayed)

Orbit data source: Space-Track

STARLINK-3296, 50168 was a payload satellite owned by SpaceX/Seattle (US) in LEO that was launched on Sat, 18 Dec 2021 UTC via an FALCON 9 launch vehicle from the Air Force Western Test Range (AFWTR). Payload-class satellites include a variety of spacecraft equipped with specific instruments for various scientific and technological missions. These include communications satellites like Starlink; space stations such as the ISS; scientific satellites like the Hubble; Earth observation satellites from companies like Planet Labs, Umbra, and HawkEye 360; GPS; miniature CubeSats for education and research; and military/defense satellites.

Not visible in the next 10 days
Identifier
50168, 2021-125N
Orbit
Decayed
Country
Flag of USUS
Related business
Manufacturer
SpaceX/Seattle
Mission
Decayed Commercial Communications
Bus & Motor
STARLINK, Unknown motor
Mass
290 kg wet, ~270 kg dry
Launch date (UTC)
2021-12-18 (5 years ago)
Launch vehicle
FALCON 9
Launch site
Air Force Western Test Range (AFWTR)
Object type
Payload
Rocket body
Debris
Shape & HBR
Box + 1 Pan, 10.1 m
Radar Cross Section
13.562 m², Large (>1 m²)

Expand to show TLE details & history
Last TLE update: 5 months ago

TLE from 5 months ago
0 STARLINK-3296
1 50168U 21125N   26010.76774172  .09467555  12550-4  29266-3 0  9997
2 50168  53.2002 124.9456 0005460 320.4328  39.6324 16.44740297228195
Epoch: 2026-01-10T18:25Z
TLE epoch observation values (Epoch: 2026-01-10T18:25:32.884Z)
Latitude
0.00001°
Longitude
98.27018°
Altitude
151.426 km
Speed
7.818 km/s
True Right ascension
08h 19m 46s
True Declination
0° 00' 00"
Sunlit
Object was in full shadow at epoch
Visualization orbit readout
Latitude
Unknown
Longitude
Unknown
Altitude
Unknown
Speed
Unknown
Apparent Right ascension
Unknown
Apparent Declination
Unknown
Sunlit
N/A
Visualization observer readout
Local Sidereal Time
21:27:32
Azimuth
Unknown
Elevation
Unknown
Doppler factor
Unknown
Orbital elements
Apogee altitude
157.051 km
Perigee altitude
149.919 km
Semi-major axis
6,531.622 km
Eccentricity
0.00055
Inclination
53.2002°
RAAN
124.9456°
Arg. of periapsis
320.4328°
True anomaly
39.67233°
Mean anomaly
39.6324°
Eccentric anomaly
39.65236°
Mean motion
4.11161 °/min
Orbital period
87.56 mins
BSTAR
0.00029266
Loading maneuver chart data...
Computing Atmospheric mass density...
Loading historical data...
Loading historical data...
Loading historical data...
Loading historical data...
Loading historical data...
Loading historical data...
Loading historical data...

Documentation

Showing up to 5 results
|